Location: Zagreb
(45.8000°N, 16.0000°E)
Time: 11:15:54
(UTC+01:00)

Vanguard 1 Rocket - Pass Details

Date: 02 October 2020
Orbit: 656 x 4221 km, 34.3° (Epoch: 28 October)

Event Time Altitude Azimuth Distance (km) Brightness Sun altitude
Rises 18:18:26 0° 239° (WSW) 4,678 12.5 1.8°
Reaches altitude 10° 18:21:02 10° 233° (SW) 4,033 11.9 1.4°
Maximum altitude 18:32:03 51° 162° (SSE) 3,140 10.1 -0.5°
Drops below altitude 10° 18:52:10 10° 96° (E) 7,016 11.2 -4.1°
Enters shadow 18:55:31 - 94° (E) 7,708 11.4 -4.6°
Sets 18:58:35 0° 92° (E) 8,318 - -5.2°
